Location: Colebrook
(42.0017°N, 73.0973°W)
Time: 15:42:52
(UTC-05:00)

Vanguard 2 - Pass Details

Date: 30 October 2021
Orbit: 554 x 2936 km, 32.9° (Epoch: 04 December)

Event Time Altitude Azimuth Distance (km) Brightness Sun altitude
Exits shadow 05:32:06 24° 236° (WSW) 2,615 9.7 -21.1°
Maximum altitude 05:34:28 27° 213° (SSW) 2,257 9.6 -20.6°
Drops below altitude 10° 05:40:01 10° 156° (SSE) 2,730 10.6 -19.6°
Sets 05:42:32 0° 144° (SE) 3,420 11.4 -19.1°
